Regional Weather Roundup
Issued by NWS

Home | Current Version | Previous Version | Graphics & Text | Print | Product List | Glossary On
Versions: 1 2 3 4 5 6 7 8 9 10 11 12 13 14 15 16 17 18 19 20 21 22 23 24 25 26 27 28 29 30 31 32 33 34 35 36 37 38 39 40 41 42 43 44 45 46 47 48 49 50
495
ASUS45 KCYS 292210
RWRWY

WYOMING REGIONAL WEATHER ROUNDUP
NATIONAL WEATHER SERVICE CHEYENNE WY
400 PM MDT MON AUG 29 2016

NOTE:  "FAIR" INDICATES FEW OR NO CLOUDS BELOW 12,000 FEET
WITH NO SIGNIFICANT WEATHER AND/OR OBSTRUCTIONS TO VISIBILITY.

WYZ001-292300-
YELLOWSTONE NATIONAL PARK

CITY           SKY/WX    TMP DP  RH WIND       PRES   REMARKS
LK YELLOWSTONE   N/A     73  35  25 SE5       30.42F
W YELLOWSTONE  NOT AVBL

$$
WYZ002>013-054>058-071-098>099-292300-
NORTHERN WYOMING

CITY           SKY/WX    TMP DP  RH WIND       PRES   REMARKS
JACKSON        SUNNY     84  27  12 SW13      30.31F
CODY           FAIR      84  39  20 E10       30.24F
GREYBULL       FAIR      87  40  19 SE6       30.16F
WORLAND        FAIR      86  39  19 NE5       30.19F
SHERIDAN       FAIR      87  46  24 E8        30.21F
BUFFALO        FAIR      84  40  21 VRB6      30.29F
GILLETTE       FAIR      88  41  19 N5        30.23F
HULETT         FAIR      81  50  34 E9        30.28F
NEWCASTLE      FAIR      88  41  19 SW5       30.24S

$$
WYZ014>020-022>026-101>103-292300-
CENTRAL WYOMING

CITY           SKY/WX    TMP DP  RH WIND       PRES   REMARKS
BIG PINEY      FAIR      82  23  11 SW7       30.37F
PINEDALE       FAIR      81  21  11 S7        30.37F
DUBOIS         FAIR      75  27  16 SE17G24   30.38F
LANDER         FAIR      85  31  14 CALM      30.28F
RIVERTON       FAIR      84  33  16 E6        30.28F
CASPER         FAIR      86  35  16 E10       30.27F
DOUGLAS        LGT RAIN  75  57  53 NE8       30.27F

$$
WYZ021-027>030-104>119-292300-
SOUTHERN WYOMING

CITY           SKY/WX    TMP DP  RH WIND       PRES   REMARKS
EVANSTON       FAIR      82  21  10 SE7G17    30.35F
FORT BRIDGER   FAIR      84  23  10 E7        30.38F
ROCK SPRINGS   FAIR      85  22  10 E9        30.33F
DIXON          MOCLDY    77  37  23 S12       30.33S
RAWLINS        FAIR      84  29  13 NE13G24   30.34F
SARATOGA       MOCLDY    79  30  17 E10G24    30.36S
LARAMIE        FAIR      74  31  20 E12       30.40S
CHEYENNE       FAIR      78  37  22 E13G23    30.33S
TORRINGTON     TSTM      82  53  36 E12       30.22S
PINE BLUFFS    FAIR      81  36  19 NE13      30.28S

$$




USA.gov is the U.S. government's official web portal to all federal, state and local government web resources and services.